User: anonymous   Login
Location: Minneapolis
(44.9800°N, 93.2640°W)
Time: 07:32:23
(UTC-05:00)
Language:

Iridium 96 - Orbit

View from above orbital plane
View from above orbital plane
View from above satellite
View from above satellite

Ground track
Ground track

The orbit data is extracted from the following two-line orbital elements,

1 27376U 02005E   16146.46952517  .00000016  00000-0 -14689-5 0  9990
2 27376  86.3980 121.1821 0001939  48.6030 311.5332 14.34214586760548
Epoch (UTC): 25 May 2016 11:16:06
Eccentricity: 0.0001939
inclination: 86.3980°
perigee height: 776 km
apogee height: 779 km
right ascension of ascending node: 121.1821°
argument of perigee: 48.6030°
revolutions per day: 14.34214586
mean anomaly at epoch: 311.5332°
orbit number at epoch: 76054

The dashed part of the orbit path shows where the satellite is in the earth's shadow,  

DLR